OPS 4682 DEB, 38458

Orbit data source: Space-Track

OPS 4682 DEB, 38458 is space debris in LEO originally from a launch on Sat, 03 Apr 1965 UTC launched from the Air Force Western Test Range (AFWTR). Debris objects in space refer to the collection of defunct objects orbiting the Earth. Examples of debris include non-operational satellites, rocket bodies, and fragments generated from explosions, collisions, or faulty payload assembly.

Loading next visibility...
Identifier
38458, 1965-027FP
Orbit
LEO
Country
Flag of USUS
Related business
Manufacturer
Unknown
Mission
Spacecraft
Bus & Motor
Unknown
Mass
Unknown
Launch date (UTC)
1965-04-03 (61 years ago)
Launch vehicle
Unknown
Launch site
Air Force Western Test Range (AFWTR)
Object type
Payload
Rocket body
Debris
Shape & HBR
Unknown shape, 0.1 m
Radar Cross Section
Small (<0.1 m²)

Expand to show TLE details & history
Last TLE update: 3 days ago

TLE from 3 days ago
0 OPS 4682 DEB
1 38458U 65027FP  25299.87728836  .00000223  00000-0  78504-3 0  9998
2 38458  90.2442   1.6537 0031304 168.2531 191.9325 12.93305634583507
Epoch: 2025-10-26T21:03Z
TLE epoch observation values (Epoch: 2025-10-26T21:03:17.714Z)
Latitude
0.00005°
Longitude
10.34271°
Altitude
1,314.791 km
Speed
7.188 km/s
True Right ascension
00h 06m 36s
True Declination
0° 00' 00"
Sunlit
Object was in full shadow at epoch
Visualization orbit readout
Latitude
Unknown
Longitude
Unknown
Altitude
Unknown
Speed
Unknown
Apparent Right ascension
Unknown
Apparent Declination
Unknown
Sunlit
N/A
Visualization observer readout
Local Sidereal Time
10:37:05
Azimuth
Unknown
Elevation
Unknown
Doppler factor
Unknown
Orbital elements
Apogee altitude
1,309.556 km
Perigee altitude
1,261.575 km
Semi-major axis
7,663.703 km
Eccentricity
0.00313
Inclination
90.2442°
RAAN
1.6537°
Arg. of periapsis
168.2531°
True anomaly
191.85861°
Mean anomaly
191.9325°
Eccentric anomaly
191.89553°
Mean motion
3.23508 °/min
Orbital period
111.28 mins
BSTAR
0.00078504
Loading maneuver chart data...
Computing Atmospheric mass density...
Loading historical data...
Loading historical data...
Loading historical data...
Loading historical data...
Loading historical data...
Loading historical data...
Loading historical data...

Documentation

Showing up to 5 results
|